Marshall, TX

7:30 PM CST on December 05, 2019 (GMT -0600)
Harrison County

Weather History for KASL - October, 2019

Change the Weather History Date:

Friday, October 18, 2019

  Actual Average (KGGG) Record (KGGG)
Temperature  
Mean Temperature 59 °F -  
Max Temperature 73 °F 75 °F 93 °F (1934)
Min Temperature 45 °F 53 °F 36 °F (1948)
Degree Days  
Heating Degree Days 6    
Growing Degree Days 9 (Base 50)    
Moisture  
Dew Point 48 °F    
Average Humidity 76    
Maximum Humidity 95    
Minimum Humidity 35    
Precipitation  
Precipitation 0.00 in - - ()
Sea Level Pressure  
Sea Level Pressure 29.90 in    
Wind  
Wind Speed 1 mph (East)    
Max Wind Speed 8 mph    
Max Gust Speed -    
Visibility 9 miles    
Events      
Averages and records for this station are not official NWS values.
T = Trace of Precipitation, MM = Missing Value Source: NWS Daily Summary

Daily Weather History Graph

Daily Weather History Graph

Search for Another Location

Airport or City:

Astronomy

Oct. 18, 2019 Rise Set
Actual Time 7:23 AM CDT 6:41 PM CDT
Civil Twilight 6:58 AM CDT 7:05 PM CDT
Nautical Twilight 6:29 AM CDT 7:34 PM CDT
Astronomical Twilight 6:01 AM CDT 8:03 PM CDT
Moon 10:10 PM CDT (10/18) 11:44 AM CDT (10/18)
Length of Visible Light 12h 07m
Length of Day
11h 17m
Waning Gibbous, 78% of the Moon is Illuminated
Oct 18
Waning Gibbous
Oct 21
Last Quarter
Oct 27
New
Nov 4
First Quarter
Nov 12
Full

Hourly Weather History & Observations

Time (CDT) Temp. Dew Point Humidity Pressure Visibility Wind Dir Wind Speed Gust Speed Precip Events Conditions
12:15 AM 46.6 °F 45.0 °F 94% 29.99 in 7.0 mi Calm Calm - N/A   Clear
12:35 AM 46.4 °F 44.6 °F 93% 29.98 in 10.0 mi Calm Calm - N/A   Clear
12:55 AM 46.4 °F 44.6 °F 93% 29.98 in 7.0 mi Calm Calm - N/A   Clear
1:15 AM 45.5 °F 43.9 °F 94% 29.97 in 7.0 mi Calm Calm - N/A   Clear
1:35 AM 46.8 °F 45.1 °F 94% 29.97 in 10.0 mi Calm Calm - N/A   Clear
1:55 AM 47.5 °F 45.9 °F 94% 29.96 in 7.0 mi Calm Calm - N/A   Clear
2:15 AM 46.4 °F 44.6 °F 93% 29.96 in 7.0 mi Calm Calm - N/A   Clear
2:35 AM 45.0 °F 43.5 °F 95% 29.96 in 10.0 mi Calm Calm - N/A   Clear
2:55 AM 45.9 °F 44.6 °F 95% 29.95 in 10.0 mi Calm Calm - N/A   Clear
3:15 AM 46.4 °F 44.8 °F 94% 29.95 in 10.0 mi Calm Calm - N/A   Clear
3:35 AM 45.0 °F 43.3 °F 94% 29.95 in 10.0 mi Calm Calm - N/A   Clear
3:55 AM 46.9 °F 45.3 °F 94% 29.94 in 7.0 mi Calm Calm - N/A   Clear
4:15 AM 50.0 °F 48.6 °F 95% 29.93 in 10.0 mi Calm Calm - N/A   Clear
4:35 AM 47.5 °F 45.9 °F 94% 29.93 in 10.0 mi Calm Calm - N/A   Clear
4:55 AM 47.5 °F 45.9 °F 94% 29.93 in 7.0 mi Calm Calm - N/A   Clear
5:15 AM 49.1 °F 47.7 °F 95% 29.93 in 10.0 mi Calm Calm - N/A   Clear
5:35 AM 47.5 °F 45.7 °F 93% 29.94 in 4.0 mi Calm Calm - N/A   Clear
5:55 AM 46.8 °F 45.0 °F 93% 29.95 in 10.0 mi Calm Calm - N/A   Clear
6:15 AM 46.2 °F 44.4 °F 93% 29.96 in 7.0 mi Calm Calm - N/A   Clear
6:35 AM 47.1 °F 45.5 °F 94% 29.96 in 10.0 mi Calm Calm - N/A   Clear
6:55 AM 47.5 °F 45.9 °F 94% 29.96 in 7.0 mi Calm Calm - N/A   Clear
7:15 AM 46.8 °F 45.1 °F 94% 29.96 in 10.0 mi Calm Calm - N/A   Clear
7:35 AM 47.3 °F 45.7 °F 94% 29.97 in 10.0 mi North 3.5 mph - N/A   Clear
7:55 AM 46.4 °F 44.6 °F 93% 29.97 in 7.0 mi Calm Calm - N/A   Clear
8:15 AM 47.5 °F 45.9 °F 94% 29.98 in 10.0 mi North 3.5 mph - N/A   Clear
8:35 AM 50.0 °F 48.4 °F 94% 29.97 in 10.0 mi Calm Calm - N/A   Clear
8:55 AM 50.7 °F 49.1 °F 94% 29.98 in 10.0 mi NNE 3.5 mph - N/A   Clear
9:15 AM 52.7 °F 50.4 °F 92% 29.98 in 10.0 mi East 3.5 mph - N/A   Clear
9:35 AM 54.9 °F 50.7 °F 86% 29.98 in 10.0 mi Calm Calm - N/A   Clear
9:55 AM 57.2 °F 51.3 °F 81% 29.98 in 10.0 mi ESE 4.6 mph - N/A   Clear
10:15 AM 58.6 °F 51.1 °F 76% 29.98 in 10.0 mi East 3.5 mph - N/A   Clear
10:35 AM 64.8 °F 53.4 °F 67% 29.97 in 10.0 mi ESE 3.5 mph - N/A   Clear
10:55 AM 64.9 °F 52.2 °F 63% 29.97 in 10.0 mi ESE 5.8 mph - N/A   Clear
11:15 AM 64.9 °F 51.4 °F 62% 29.96 in 10.0 mi ESE 6.9 mph - N/A   Clear
11:35 AM 66.0 °F 50.0 °F 56% 29.95 in 10.0 mi East 5.8 mph - N/A   Clear
11:55 AM 67.5 °F 51.3 °F 56% 29.93 in 10.0 mi SE 5.8 mph - N/A   Clear
12:15 PM 67.5 °F 50.2 °F 54% 29.93 in 10.0 mi East 6.9 mph - N/A   Clear
12:35 PM 70.0 °F 50.4 °F 50% 29.92 in 10.0 mi NNE 5.8 mph - N/A   Clear
12:55 PM 70.0 °F 48.6 °F 46% 29.92 in 10.0 mi Calm Calm - N/A   Clear
1:15 PM 70.0 °F 48.7 °F 47% 29.90 in 10.0 mi SSE 3.5 mph - N/A   Clear
1:30 PM 70.0 °F 47.3 °F 44% 29.89 in 10.0 mi East 5.8 mph - N/A   Clear
2:15 PM 71.4 °F 46.6 °F 41% 29.86 in 10.0 mi ESE 3.5 mph - N/A   Clear
2:35 PM 72.5 °F 46.9 °F 40% 29.85 in 10.0 mi ENE 4.6 mph - N/A   Clear
2:55 PM 72.5 °F 43.7 °F 36% 29.85 in 10.0 mi ENE 5.8 mph - N/A   Clear
3:15 PM 72.5 °F 44.8 °F 37% 29.84 in 10.0 mi East 5.8 mph - N/A   Clear
3:35 PM 72.5 °F 43.7 °F 36% 29.83 in 10.0 mi East 8.1 mph - N/A   Clear
3:55 PM 73.2 °F 44.1 °F 35% 29.83 in 10.0 mi ESE 3.5 mph - N/A   Clear
4:15 PM 72.5 °F 44.6 °F 37% 29.82 in 10.0 mi ESE 3.5 mph - N/A   Clear
4:35 PM 72.5 °F 44.8 °F 37% 29.82 in 10.0 mi East 5.8 mph - N/A   Clear
4:55 PM 72.5 °F 45.1 °F 37% 29.82 in 10.0 mi ESE 4.6 mph - N/A   Clear
5:15 PM 72.5 °F 44.4 °F 36% 29.81 in 10.0 mi ESE 5.8 mph - N/A   Clear
5:35 PM 72.5 °F 45.9 °F 39% 29.81 in 10.0 mi Calm Calm - N/A   Clear
5:55 PM 71.1 °F 46.8 °F 42% 29.80 in 10.0 mi Calm Calm - N/A   Clear
6:15 PM 70.0 °F 49.6 °F 48% 29.80 in 10.0 mi Calm Calm - N/A   Clear
6:35 PM 64.9 °F 52.9 °F 65% 29.80 in 10.0 mi Calm Calm - N/A   Clear
6:55 PM 62.6 °F 55.2 °F 77% 29.80 in 10.0 mi Calm Calm - N/A   Clear
7:15 PM 57.4 °F 51.8 °F 82% 29.80 in 10.0 mi Calm Calm - N/A   Clear
7:35 PM 57.4 °F 53.4 °F 87% 29.80 in 10.0 mi Calm Calm - N/A   Clear
7:55 PM 56.3 °F 52.2 °F 86% 29.80 in 10.0 mi Calm Calm - N/A   Clear
8:15 PM 55.2 °F 51.3 °F 87% 29.81 in 7.0 mi Calm Calm - N/A   Clear
8:35 PM 54.9 °F 51.4 °F 88% 29.82 in 5.0 mi Calm Calm - N/A   Clear
8:55 PM 54.9 °F 52.0 °F 90% 29.83 in 5.0 mi Calm Calm - N/A   Clear
9:15 PM 54.9 °F 51.8 °F 89% 29.82 in 10.0 mi Calm Calm - N/A   Clear
9:35 PM 53.1 °F 50.4 °F 91% 29.83 in 5.0 mi Calm Calm - N/A   Clear
9:55 PM 52.7 °F 50.0 °F 91% 29.83 in 7.0 mi Calm Calm - N/A   Clear
10:15 PM 52.7 °F 50.0 °F 91% 29.84 in 10.0 mi Calm Calm - N/A   Clear
10:35 PM 52.7 °F 50.0 °F 91% 29.83 in 10.0 mi Calm Calm - N/A   Clear
10:55 PM 52.7 °F 50.0 °F 91% 29.83 in 10.0 mi Calm Calm - N/A   Clear
11:15 PM 52.7 °F 50.0 °F 91% 29.82 in 10.0 mi Calm Calm - N/A   Clear
11:35 PM 52.7 °F 49.3 °F 88% 29.81 in 10.0 mi Calm Calm - N/A   Clear
11:55 PM 54.9 °F 48.6 °F 79% 29.81 in 10.0 mi Calm Calm - N/A   Clear